TimeMDT,TemperatureF,Dew PointF,Humidity,Sea Level PressureIn,VisibilityMPH,Wind Direction,Wind SpeedMPH,Gust SpeedMPH,PrecipitationIn,Events,Conditions,WindDirDegrees,DateUTC
12:55 AM,75.9,63.0,64,29.87,10.0,NE,5.8,-,N/A,,Clear,50,2013-07-14 06:55:00
1:53 AM,75.2,62.6,65,29.98,10.0,North,23.0,29.9,N/A,,Mostly Cloudy,10,2013-07-14 07:53:00
1:55 AM,73.9,63.0,68,29.91,10.0,NNE,19.6,28.8,N/A,,Mostly Cloudy,20,2013-07-14 07:55:00
2:24 AM,73.4,62.6,69,29.98,10.0,NNE,18.4,28.8,N/A,,Scattered Clouds,30,2013-07-14 08:24:00
2:41 AM,71.6,60.8,69,29.99,10.0,NNE,21.9,29.9,N/A,,Mostly Cloudy,20,2013-07-14 08:41:00
2:55 AM,73.0,61.0,66,29.93,10.0,NNE,18.4,32.2,N/A,,Overcast,30,2013-07-14 08:55:00
3:55 AM,73.0,62.1,68,29.98,10.0,NNW,16.1,21.9,N/A,,Mostly Cloudy,340,2013-07-14 09:55:00
4:02 AM,73.4,62.6,69,30.04,10.0,North,17.3,25.3,N/A,,Mostly Cloudy,350,2013-07-14 10:02:00
4:55 AM,71.1,62.1,73,29.97,10.0,North,13.8,25.3,N/A,,Overcast,10,2013-07-14 10:55:00
5:10 AM,71.6,60.8,69,30.05,10.0,NNE,13.8,21.9,N/A,Thunderstorm,Overcast,20,2013-07-14 11:10:00
5:23 AM,69.8,60.8,73,30.07,10.0,North,10.4,24.2,N/A,Thunderstorm,Overcast,360,2013-07-14 11:23:00
5:55 AM,66.9,63.0,87,29.99,10.0,North,10.4,-,0.06,Rain,Light Rain,360,2013-07-14 11:55:00
6:55 AM,66.9,63.0,87,30.01,10.0,North,13.8,-,0.01,,Partly Cloudy,350,2013-07-14 12:55:00
7:55 AM,71.1,63.0,75,30.05,10.0,NNE,11.5,-,N/A,,Clear,20,2013-07-14 13:55:00
8:52 AM,71.6,62.6,73,30.11,10.0,North,16.1,-,N/A,,Mostly Cloudy,10,2013-07-14 14:52:00
8:55 AM,72.0,63.0,73,30.05,10.0,North,15.0,-,N/A,,Mostly Cloudy,10,2013-07-14 14:55:00
9:07 AM,73.4,64.4,73,30.11,10.0,NNE,11.5,-,N/A,,Scattered Clouds,20,2013-07-14 15:07:00
9:18 AM,73.4,64.4,73,30.12,10.0,North,15.0,24.2,N/A,,Mostly Cloudy,360,2013-07-14 15:18:00
9:48 AM,73.4,64.4,73,30.11,10.0,North,19.6,24.2,N/A,,Scattered Clouds,350,2013-07-14 15:48:00
9:55 AM,75.9,64.0,67,30.05,10.0,North,15.0,24.2,N/A,,Scattered Clouds,360,2013-07-14 15:55:00
10:22 AM,73.4,62.6,69,30.12,10.0,North,18.4,-,N/A,,Overcast,10,2013-07-14 16:22:00
10:55 AM,75.9,64.0,67,30.06,10.0,North,13.8,-,N/A,,Mostly Cloudy,10,2013-07-14 16:55:00
11:09 AM,75.2,64.4,69,30.13,10.0,North,16.1,24.2,N/A,,Overcast,10,2013-07-14 17:09:00
11:55 AM,72.0,63.0,73,30.09,10.0,NNW,16.1,-,N/A,,Overcast,340,2013-07-14 17:55:00
12:55 PM,72.0,62.1,71,30.11,10.0,North,12.7,-,N/A,,Overcast,360,2013-07-14 18:55:00
1:55 PM,72.0,62.1,71,30.12,10.0,North,12.7,-,N/A,,Overcast,350,2013-07-14 19:55:00
2:55 PM,71.1,62.1,73,30.12,10.0,NNW,16.1,-,N/A,,Overcast,340,2013-07-14 20:55:00
3:55 PM,72.0,61.0,68,30.12,10.0,North,15.0,-,N/A,,Overcast,360,2013-07-14 21:55:00
4:55 PM,73.0,61.0,66,30.10,10.0,North,18.4,-,N/A,,Overcast,360,2013-07-14 22:55:00
5:55 PM,70.0,60.1,71,30.10,10.0,North,18.4,-,N/A,,Overcast,10,2013-07-14 23:55:00
6:55 PM,68.0,62.1,81,30.13,10.0,NNE,3.5,-,0.00,,Overcast,20,2013-07-15 00:55:00
7:55 PM,68.0,63.0,84,30.12,10.0,North,4.6,-,0.00,,Overcast,360,2013-07-15 01:55:00
8:55 PM,70.0,64.0,81,30.12,10.0,NNE,6.9,-,0.00,,Overcast,30,2013-07-15 02:55:00
9:29 PM,71.6,64.4,78,30.17,10.0,NE,8.1,-,N/A,,Overcast,50,2013-07-15 03:29:00
9:55 PM,71.1,64.9,81,30.12,10.0,ENE,8.1,-,N/A,,Overcast,60,2013-07-15 03:55:00
10:55 PM,71.1,66.9,87,30.10,9.0,East,12.7,-,0.00,,Overcast,100,2013-07-15 04:55:00
11:03 PM,71.6,66.2,83,30.15,8.0,East,11.5,-,N/A,,Overcast,90,2013-07-15 05:03:00
11:55 PM,70.0,66.9,90,30.11,6.0,East,8.1,-,N/A,,Overcast,80,2013-07-15 05:55:00